Location: Great Falls
(47.5000°N, 111.3000°W)
Time: 21:38:15
(UTC-06:00)

Envisat - Visible Passes

Search period start: 24 March 2019 00:00
Search period end: 03 April 2019 00:00
Orbit: 764 x 766 km, 98.2° (Epoch: 24 March)

Date Brightness Start Highest point End Pass type
(mag) Time Alt. Az. Time Alt. Az. Time Alt. Az.
24 Mar 5.9 21:29:01 10° WSW 21:31:46 15° W 21:34:32 10° NW visible
25 Mar 5.1 20:50:11 10° SSW 20:54:36 30° W 20:59:04 10° NNW visible
26 Mar 3.7 20:12:38 10° S 20:17:39 62° W 20:22:43 10° NNW visible
27 Mar 5.8 21:16:58 10° SW 21:20:24 18° W 21:23:52 10° NW visible
28 Mar 4.7 20:38:38 10° SSW 20:43:19 37° W 20:48:01 10° NNW visible
29 Mar 6.3 21:45:30 10° W 21:46:18 10° W 21:47:07 10° WNW visible
30 Mar 5.6 21:05:08 10° SW 21:09:03 22° W 21:13:01 10° NW visible
31 Mar 4.3 20:27:10 10° S 20:32:02 45° W 20:36:55 10° NNW visible
01 Apr 6.0 21:32:31 10° WSW 21:34:55 13° W 21:37:19 10° WNW visible
02 Apr 5.2 20:53:26 10° SSW 20:57:44 27° W 21:02:04 10° NW visible
